• In Uzbekistan
  • List of Countries
  • For 7 days
  • Water Temperature
  • Satellite Maps
  • Weather Map
  • Weather Widgets
  • user-avatar
    Login

    Hourly Weather Saurimo

    Today, 27 February, Monday

    Time Temperature Precipitation Wind Pressure Humidity
    00:00 +21°C° 0 mm 1 mps 668 mmHg 85%
    01:00 +21°C° 0 mm 1 mps 668 mmHg 85%
    02:00 +21°C° 0.1 mm 1 mps 668 mmHg 86%
    03:00 +21°C° 0.1 mm 1 mps 668 mmHg 88%
    04:00 +21°C° 0.1 mm 1 mps 668 mmHg 89%
    05:00 +21°C° 0.1 mm 1 mps 668 mmHg 88%
    06:00 +21°C° 0.1 mm 1 mps 669 mmHg 88%
    07:00 +22°C° 0.1 mm 1 mps 669 mmHg 87%
    08:00 +24°C° 0.2 mm 1 mps 670 mmHg 81%
    09:00 +25°C° 0.2 mm 1 mps 670 mmHg 74%
    10:00 +27°C° 0.2 mm 2 mps 670 mmHg 68%
    11:00 +28°C° 0.3 mm 2 mps 670 mmHg 65%
    12:00 +28°C° 0.3 mm 2 mps 669 mmHg 61%
    13:00 +29°C° 0.3 mm 2 mps 669 mmHg 58%
    14:00 +29°C° 0.3 mm 2 mps 668 mmHg 61%
    15:00 +28°C° 0.3 mm 2 mps 668 mmHg 65%
    16:00 +28°C° 0.3 mm 2 mps 667 mmHg 68%
    17:00 +26°C° 0.2 mm 2 mps 667 mmHg 75%
    18:00 +24°C° 0.2 mm 2 mps 667 mmHg 81%
    19:00 +23°C° 0.2 mm 1 mps 667 mmHg 88%
    20:00 +22°C° 0 mm 1 mps 668 mmHg 89%
    21:00 +22°C° 0 mm 1 mps 668 mmHg 90%
    22:00 +22°C° 0 mm 1 mps 669 mmHg 92%
    23:00 +21°C° 0.4 mm 1 mps 668 mmHg 93%

    Tomorrow, 28 February, Tuesday

    Time Temperature Precipitation Wind Pressure Humidity
    00:00 +21°C° 0.4 mm 1 mps 668 mmHg 94%
    01:00 +21°C° 0.4 mm 1 mps 668 mmHg 96%
    02:00 +21°C° 1 mm 1 mps 668 mmHg 96%
    03:00 +19°C° 1 mm 0 mps 668 mmHg 97%
    04:00 +18°C° 1 mm 0 mps 668 mmHg 97%
    05:00 +19°C° 0.4 mm 0 mps 668 mmHg 96%
    06:00 +22°C° 0.4 mm 1 mps 669 mmHg 94%
    07:00 +22°C° 0.4 mm 1 mps 670 mmHg 93%
    08:00 +24°C° 0.2 mm 1 mps 670 mmHg 85%
    09:00 +25°C° 0.2 mm 2 mps 671 mmHg 77%
    10:00 +27°C° 0.2 mm 2 mps 671 mmHg 69%
    11:00 +28°C° 0.3 mm 2 mps 670 mmHg 66%
    12:00 +28°C° 0.3 mm 3 mps 670 mmHg 62%
    13:00 +29°C° 0.3 mm 3 mps 669 mmHg 59%
    14:00 +28°C° 0.7 mm 3 mps 669 mmHg 65%
    15:00 +28°C° 0.7 mm 2 mps 668 mmHg 70%
    16:00 +27°C° 0.7 mm 2 mps 668 mmHg 75%
    17:00 +26°C° 0.6 mm 2 mps 668 mmHg 81%
    18:00 +24°C° 0.6 mm 2 mps 668 mmHg 86%
    19:00 +23°C° 0.6 mm 1 mps 668 mmHg 91%
    20:00 +22°C° 0.3 mm 1 mps 668 mmHg 92%
    21:00 +22°C° 0.3 mm 1 mps 669 mmHg 93%
    22:00 +21°C° 0.3 mm 1 mps 669 mmHg 94%
    23:00 +21°C° 0.4 mm 1 mps 669 mmHg 94%

    Day after tomorrow, 1 March, Wednesday

    Time Temperature Precipitation Wind Pressure Humidity
    00:00 +21°C° 0.4 mm 1 mps 668 mmHg 94%
    01:00 +21°C° 0.4 mm 1 mps 668 mmHg 94%
    02:00 +21°C° 0.2 mm 1 mps 668 mmHg 95%
    03:00 +21°C° 0.2 mm 1 mps 668 mmHg 95%
    04:00 +20°C° 0.2 mm 1 mps 668 mmHg 96%
    05:00 +21°C° 0.1 mm 1 mps 669 mmHg 95%
    06:00 +21°C° 0.1 mm 1 mps 669 mmHg 94%
    07:00 +22°C° 0.1 mm 1 mps 670 mmHg 93%
    08:00 +23°C° 0.1 mm 1 mps 670 mmHg 86%
    09:00 +24°C° 0.1 mm 1 mps 670 mmHg 80%
    10:00 +26°C° 0.1 mm 1 mps 671 mmHg 73%
    11:00 +27°C° 0.2 mm 1 mps 670 mmHg 67%
    12:00 +28°C° 0.2 mm 2 mps 670 mmHg 61%
    13:00 +29°C° 0.2 mm 2 mps 669 mmHg 55%
    14:00 +29°C° 0.4 mm 2 mps 669 mmHg 61%
    15:00 +28°C° 0.4 mm 2 mps 668 mmHg 67%
    16:00 +27°C° 0.4 mm 2 mps 668 mmHg 74%
    17:00 +26°C° 0.2 mm 2 mps 668 mmHg 80%
    18:00 +24°C° 0.2 mm 2 mps 669 mmHg 86%
    19:00 +23°C° 0.2 mm 2 mps 669 mmHg 93%
    20:00 +21°C° 0.3 mm 2 mps 669 mmHg 94%
    21:00 +21°C° 0.3 mm 2 mps 670 mmHg 95%
    22:00 +21°C° 0.3 mm 2 mps 670 mmHg 96%
    23:00 +20°C° 0.1 mm 2 mps 670 mmHg 97%

    2 March, Thursday

    Time Temperature Precipitation Wind Pressure Humidity
    00:00 +20°C° 0.1 mm 2 mps 669 mmHg 97%
    01:00 +20°C° 0.1 mm 2 mps 669 mmHg 98%
    02:00 +20°C° 0.5 mm 2 mps 669 mmHg 98%
    03:00 +20°C° 0.5 mm 2 mps 668 mmHg 98%
    04:00 +20°C° 0.5 mm 2 mps 668 mmHg 98%
    05:00 +20°C° 0.9 mm 2 mps 669 mmHg 97%
    06:00 +20°C° 0.9 mm 2 mps 670 mmHg 96%
    07:00 +20°C° 0.9 mm 2 mps 670 mmHg 96%
    08:00 +20°C° 0.5 mm 2 mps 671 mmHg 94%
    09:00 +21°C° 0.5 mm 2 mps 671 mmHg 91%
    10:00 +23°C° 0.5 mm 2 mps 672 mmHg 89%
    11:00 +24°C° 0.3 mm 2 mps 671 mmHg 83%
    12:00 +25°C° 0.3 mm 2 mps 671 mmHg 76%
    13:00 +26°C° 0.3 mm 2 mps 671 mmHg 70%
    14:00 +25°C° 0.1 mm 1 mps 670 mmHg 73%
    15:00 +25°C° 0.1 mm 1 mps 670 mmHg 76%
    16:00 +25°C° 0.1 mm 1 mps 669 mmHg 79%
    17:00 +24°C° 0 mm 1 mps 669 mmHg 83%
    18:00 +23°C° 0 mm 1 mps 670 mmHg 86%
    19:00 +22°C° 0 mm 1 mps 670 mmHg 90%
    20:00 +21°C° 0 mm 1 mps 670 mmHg 92%
    21:00 +21°C° 0 mm 1 mps 670 mmHg 94%
    22:00 +21°C° 0 mm 1 mps 670 mmHg 96%
    23:00 +20°C° 0 mm 1 mps 670 mmHg 97%

    3 March, Friday

    Time Temperature Precipitation Wind Pressure Humidity
    00:00 +20°C° 0 mm 1 mps 669 mmHg 97%
    01:00 +19°C° 0 mm 1 mps 668 mmHg 98%
    02:00 +19°C° 0 mm 1 mps 668 mmHg 98%
    03:00 +18°C° 0 mm 1 mps 668 mmHg 98%
    04:00 +18°C° 0 mm 1 mps 668 mmHg 97%
    05:00 +19°C° 0 mm 1 mps 668 mmHg 95%
    06:00 +20°C° 0 mm 1 mps 669 mmHg 92%
    07:00 +21°C° 0 mm 1 mps 670 mmHg 89%
    08:00 +24°C° 0 mm 1 mps 670 mmHg 79%
    09:00 +26°C° 0 mm 2 mps 670 mmHg 68%
    10:00 +28°C° 0 mm 2 mps 671 mmHg 57%
    11:00 +30°C° 0 mm 2 mps 670 mmHg 52%
    12:00 +31°C° 0 mm 2 mps 670 mmHg 47%
    13:00 +33°C° 0 mm 3 mps 669 mmHg 41%
    14:00 +32°C° 0 mm 2 mps 669 mmHg 44%
    15:00 +31°C° 0 mm 2 mps 668 mmHg 47%
    16:00 +31°C° 0 mm 2 mps 668 mmHg 50%
    17:00 +29°C° 0.1 mm 2 mps 668 mmHg 58%
    18:00 +26°C° 0.1 mm 2 mps 668 mmHg 65%
    19:00 +24°C° 0.1 mm 2 mps 668 mmHg 73%
    20:00 +23°C° 0 mm 2 mps 668 mmHg 74%
    21:00 +23°C° 0 mm 2 mps 668 mmHg 75%
    22:00 +21°C° 0 mm 2 mps 669 mmHg 77%
    23:00 +21°C° 0 mm 1 mps 668 mmHg 79%

    4 March, Saturday

    Time Temperature Precipitation Wind Pressure Humidity
    00:00 +21°C° 0 mm 1 mps 668 mmHg 81%
    01:00 +20°C° 0 mm 1 mps 667 mmHg 83%
    02:00 +20°C° 0 mm 1 mps 667 mmHg 85%
    03:00 +20°C° 0 mm 1 mps 667 mmHg 86%
    04:00 +19°C° 0 mm 1 mps 667 mmHg 88%
    05:00 +20°C° 0 mm 1 mps 668 mmHg 85%
    06:00 +21°C° 0 mm 1 mps 669 mmHg 83%
    07:00 +22°C° 0 mm 1 mps 669 mmHg 80%
    08:00 +24°C° 0 mm 1 mps 670 mmHg 71%
    09:00 +27°C° 0 mm 2 mps 670 mmHg 61%
    10:00 +29°C° 0 mm 2 mps 671 mmHg 51%
    11:00 +30°C° 0 mm 2 mps 670 mmHg 48%
    12:00 +31°C° 0 mm 2 mps 670 mmHg 44%
    13:00 +32°C° 0 mm 2 mps 669 mmHg 40%
    14:00 +32°C° 0 mm 2 mps 669 mmHg 43%
    15:00 +32°C° 0 mm 2 mps 668 mmHg 46%
    16:00 +31°C° 0 mm 2 mps 668 mmHg 48%
    17:00 +29°C° 0 mm 2 mps 668 mmHg 56%
    18:00 +27°C° 0 mm 2 mps 668 mmHg 63%
    19:00 +24°C° 0 mm 2 mps 668 mmHg 70%
    20:00 +24°C° 0 mm 2 mps 668 mmHg 72%
    21:00 +23°C° 0 mm 2 mps 668 mmHg 74%
    22:00 +23°C° 0 mm 1 mps 668 mmHg 75%
    23:00 +22°C° 0 mm 1 mps 668 mmHg 77%
    Show more